Weather History for Camden, AR

Change the Weather History Date:

Saturday, January 19, 2013

  Actual Average Record
Temperature  
Mean Temperature 45 °F -  
Max Temperature 64 °F 51 °F 78 °F (1950)
Min Temperature 26 °F 32 °F -4 °F (1930)
Degree Days  
Heating Degree Days 20    
Moisture  
Dew Point 27 °F    
Average Humidity 62    
Maximum Humidity 93    
Minimum Humidity 19    
Precipitation  
Precipitation 0.00 in - - ()
Sea Level Pressure  
Sea Level Pressure 30.28 in    
Wind  
Wind Speed 2 mph (SSW)    
Max Wind Speed 13 mph    
Max Gust Speed -    
Visibility 10 miles    
Events      
Averages and records for this station are not official NWS values.
T = Trace of Precipitation, MM = Missing Value Source: NWS Daily Summary

Daily Weather History Graph

Daily Weather History Graph

Search for Another Location

Airport:

Trip Planner

Search our weather history database for the weather conditions in past years. The results will help you decide how hot, cold, wet, or windy it might be!

Date:

Astronomy

Jan. 19, 2013 Rise Set
Actual Time 7:14 AM CST 5:29 PM CST
Civil Twilight 6:47 AM CST 5:56 PM CST
Nautical Twilight 6:17 AM CST 6:27 PM CST
Astronomical Twilight 5:47 AM CST 6:56 PM CST
Moon 11:53 AM CST (1/19) 12:53 AM CST (1/19)
Length of Visible Light 11h 09m
Length of Day
10h 15m
First Quarter, 57% of the Moon is Illuminated
Jan 19
First Quarter
Jan 26
Full
Feb 3
Last Quarter
Feb 10
New
Feb 17
First Quarter

Hourly Weather History & Observations

Time (CST) Temp. Windchill Dew Point Humidity Pressure Visibility Wind Dir Wind Speed Gust Speed Precip Events Conditions
12:15 AM 28.4 °F - 26.6 °F 93% 30.36 in 10.0 mi Calm Calm - N/A   Clear
12:35 AM 28.4 °F - 26.6 °F 93% 30.36 in 10.0 mi Calm Calm - N/A   Clear
1:15 AM 28.4 °F - 26.6 °F 93% 30.36 in 10.0 mi Calm Calm - N/A   Clear
1:35 AM 28.4 °F - 26.6 °F 93% 30.36 in 10.0 mi Calm Calm - N/A   Clear
1:55 AM 28.4 °F - 26.6 °F 93% 30.36 in 10.0 mi Calm Calm - N/A   Clear
2:35 AM 28.4 °F - 26.6 °F 93% 30.35 in 10.0 mi Calm Calm - N/A   Clear
2:55 AM 28.4 °F - 26.6 °F 93% 30.34 in 10.0 mi Calm Calm - N/A   Clear
3:15 AM 28.4 °F - 24.8 °F 86% 30.34 in 10.0 mi Calm Calm - N/A   Clear
3:35 AM 28.4 °F - 26.6 °F 93% 30.34 in 10.0 mi Calm Calm - N/A   Clear
3:55 AM 26.6 °F - 24.8 °F 93% 30.33 in 10.0 mi Calm Calm - N/A   Clear
4:15 AM 26.6 °F - 24.8 °F 93% 30.33 in 10.0 mi Calm Calm - N/A   Clear
4:35 AM 26.6 °F - 24.8 °F 93% 30.33 in 10.0 mi Calm Calm - N/A   Clear
4:55 AM 26.6 °F - 24.8 °F 93% 30.32 in 10.0 mi Calm Calm - N/A   Clear
5:15 AM 26.6 °F - 24.8 °F 93% 30.32 in 10.0 mi Calm Calm - N/A   Clear
5:35 AM 26.6 °F - 24.8 °F 93% 30.32 in 10.0 mi Calm Calm - N/A   Clear
5:55 AM 26.6 °F - 24.8 °F 93% 30.32 in 10.0 mi Calm Calm - N/A   Clear
7:15 AM 26.6 °F - 23.0 °F 86% 30.32 in 10.0 mi Calm Calm - N/A   Clear
7:55 AM 26.6 °F - 24.8 °F 93% 30.32 in 10.0 mi Calm Calm - N/A   Clear
8:15 AM 30.2 °F - 28.4 °F 93% 30.33 in 10.0 mi Calm Calm - N/A   Clear
8:35 AM 33.8 °F - 30.2 °F 87% 30.33 in 10.0 mi Calm Calm - N/A   Clear
8:55 AM 39.2 °F - 32.0 °F 75% 30.34 in 10.0 mi Calm Calm - N/A   Clear
9:35 AM 42.8 °F - 32.0 °F 66% 30.34 in 10.0 mi Calm Calm - N/A   Clear
9:55 AM 46.4 °F 44.3 °F 32.0 °F 57% 30.34 in 10.0 mi SSW 4.6 mph - N/A   Clear
10:15 AM 50.0 °F - 24.8 °F 37% 30.34 in 10.0 mi SSW 11.5 mph - N/A   Clear
10:35 AM 53.6 °F - 23.0 °F 30% 30.34 in 10.0 mi SSW 6.9 mph - N/A   Clear
11:15 AM 55.4 °F - 24.8 °F 31% 30.33 in 10.0 mi SSW 10.4 mph - N/A   Clear
12:15 PM 59.0 °F - 24.8 °F 27% 30.29 in 10.0 mi SW 10.4 mph - N/A   Clear
12:35 PM 60.8 °F - 26.6 °F 27% 30.27 in 10.0 mi SSW 8.1 mph - N/A   Clear
12:55 PM 62.6 °F - 23.0 °F 22% 30.26 in 10.0 mi WSW 6.9 mph - N/A   Clear
1:15 PM 62.6 °F - 19.4 °F 19% 30.25 in 10.0 mi SSW 12.7 mph - N/A   Clear
1:55 PM 62.6 °F - 23.0 °F 22% 30.23 in 10.0 mi South 5.8 mph - N/A   Clear
2:35 PM 64.4 °F - 24.8 °F 22% 30.21 in 10.0 mi SW 8.1 mph - N/A   Clear
2:55 PM 64.4 °F - 24.8 °F 22% 30.21 in 10.0 mi SW 8.1 mph - N/A   Clear
3:15 PM 64.4 °F - 26.6 °F 24% 30.21 in 10.0 mi WSW 8.1 mph - N/A   Clear
3:35 PM 64.4 °F - 26.6 °F 24% 30.20 in 10.0 mi SW 8.1 mph - N/A   Clear
3:55 PM 62.6 °F - 26.6 °F 26% 30.21 in 10.0 mi SSW 6.9 mph - N/A   Clear
4:15 PM 62.6 °F - 26.6 °F 26% 30.21 in 10.0 mi SSW 5.8 mph - N/A   Clear
4:35 PM 60.8 °F - 26.6 °F 27% 30.20 in 10.0 mi SSW 4.6 mph - N/A   Clear
4:55 PM 59.0 °F - 24.8 °F 27% 30.20 in 10.0 mi South 4.6 mph - N/A   Clear
5:15 PM 57.2 °F - 26.6 °F 31% 30.20 in 10.0 mi South 5.8 mph - N/A   Clear
5:35 PM 55.4 °F - 24.8 °F 31% 30.20 in 10.0 mi Calm Calm - N/A   Clear
5:55 PM 53.6 °F - 24.8 °F 33% 30.20 in 10.0 mi South 5.8 mph - N/A   Clear
6:15 PM 51.8 °F - 24.8 °F 35% 30.21 in 10.0 mi SSW 3.5 mph - N/A   Clear
6:35 PM 50.0 °F - 26.6 °F 40% 30.21 in 10.0 mi South 3.5 mph - N/A   Clear
6:55 PM 46.4 °F 44.3 °F 28.4 °F 50% 30.22 in 10.0 mi South 4.6 mph - N/A   Clear
7:15 PM 46.4 °F 45.2 °F 28.4 °F 50% 30.22 in 10.0 mi South 3.5 mph - N/A   Clear
7:35 PM 42.8 °F - 32.0 °F 66% 30.22 in 10.0 mi Calm Calm - N/A   Clear
8:15 PM 42.8 °F 41.1 °F 32.0 °F 66% 30.22 in 10.0 mi South 3.5 mph - N/A   Clear
8:35 PM 41.0 °F - 32.0 °F 70% 30.23 in 10.0 mi Calm Calm - N/A   Clear
8:55 PM 41.0 °F - 30.2 °F 65% 30.23 in 10.0 mi Calm Calm - N/A   Clear
9:15 PM 41.0 °F - 32.0 °F 70% 30.23 in 10.0 mi Calm Calm - N/A   Clear
9:35 PM 41.0 °F - 32.0 °F 70% 30.24 in 10.0 mi Calm Calm - N/A   Clear
9:55 PM 39.2 °F - 30.2 °F 70% 30.24 in 10.0 mi Calm Calm - N/A   Clear
10:15 PM 37.4 °F - 30.2 °F 75% 30.25 in 10.0 mi Calm Calm - N/A   Clear
10:35 PM 37.4 °F - 32.0 °F 81% 30.25 in 10.0 mi Calm Calm - N/A   Clear
10:55 PM 37.4 °F - 32.0 °F 81% 30.25 in 10.0 mi Calm Calm - N/A   Clear
11:15 PM 37.4 °F - 30.2 °F 75% 30.25 in 10.0 mi Calm Calm - N/A   Clear
11:35 PM 35.6 °F - 30.2 °F 81% 30.25 in 10.0 mi Calm Calm - N/A   Clear
11:55 PM 35.6 °F - 30.2 °F 81% 30.25 in 10.0 mi Calm Calm - N/A   Clear